IRIS

Last updated on Fri Jun 19 2026 20:04:48 GMT+0000 (Coordinated Universal Time)

1 39197U 13033A 26170.52181357 .00000738 00000+0 90715-4 0 9990 2 39197 97.9329 9.7915 0023380 313.8607 46.0676 14.85888859700724
UTC large
Height (km)
Speed (km/s)
/
Latitude / Longitude
Inclination (degrees)
Orbital Period (minutes)
Azimuth
Elevation
Range (km)
Doppler Factor

Next 0 passes for location: London (51.5072 / 0.1276)

No passes found over London.
IRIS